^^

Weather Underground History

Daily Summary for July 21, 2019 Units:  Metric    English   Both
Daily Weekly Monthly Yearly
  High: Low: Average:
Temperature: 18 °C 7 °C 12.2 °C
Dew Point: 9 °C 3 °C 6.6 °C
Humidity: 91% 46% 70%
Wind Speed: 12km/h 0km/h 5km/h
Wind Gust: 24km/h - -
Wind- - NW
Pressure: 1019.1 hPa 1015.1 hPa -
Precipitation: 0.0 mm    
 
 
Tabular Data for July 21, 2019
Time Temperature Dew Point Pressure Wind Wind Speed Wind Gust Humidity Rainfall Rate (Hourly) solar
00:04 9 °C 6 °C 1015.2 hPa Calm   3 km/h 83% 0.0 mm 0 W/m2
00:09 9 °C 6 °C 1015.1 hPa NNW 2 km/h 5 km/h 83% 0.0 mm 0 W/m2
00:14 9 °C 6 °C 1015.1 hPa NNW 3 km/h 6 km/h 83% 0.0 mm 0 W/m2
00:19 9 °C 6 °C 1015.1 hPa NNW 1 km/h 6 km/h 83% 0.0 mm 0 W/m2
00:24 9 °C 6 °C 1015.2 hPa Calm   5 km/h 83% 0.0 mm 0 W/m2
00:29 9 °C 6 °C 1015.2 hPa Calm   3 km/h 83% 0.0 mm 0 W/m2
00:34 8 °C 6 °C 1015.2 hPa NNW 1 km/h 6 km/h 83% 0.0 mm 0 W/m2
00:39 8 °C 6 °C 1015.2 hPa NNW 4 km/h 6 km/h 83% 0.0 mm 0 W/m2
00:44 8 °C 6 °C 1015.2 hPa NNW 3 km/h 6 km/h 83% 0.0 mm 0 W/m2
00:49 8 °C 6 °C 1015.2 hPa NNW 3 km/h 6 km/h 84% 0.0 mm 0 W/m2
00:54 8 °C 6 °C 1015.2 hPa NNW 2 km/h 5 km/h 84% 0.0 mm 0 W/m2
00:59 8 °C 6 °C 1015.3 hPa Calm   3 km/h 84% 0.0 mm 0 W/m2
01:04 8 °C 6 °C 1015.3 hPa Calm   2 km/h 84% 0.0 mm 0 W/m2
01:09 8 °C 6 °C 1015.3 hPa Calm     84% 0.0 mm 0 W/m2
01:14 8 °C 5 °C 1015.3 hPa Calm     84% 0.0 mm 0 W/m2
01:19 8 °C 6 °C 1015.3 hPa Calm     85% 0.0 mm 0 W/m2
01:24 8 °C 5 °C 1015.3 hPa Calm   2 km/h 85% 0.0 mm 0 W/m2
01:29 7 °C 5 °C 1015.3 hPa Calm   5 km/h 85% 0.0 mm 0 W/m2
01:34 7 °C 5 °C 1015.3 hPa Calm     86% 0.0 mm 0 W/m2
01:39 7 °C 5 °C 1015.4 hPa Calm     86% 0.0 mm 0 W/m2
01:44 7 °C 5 °C 1015.3 hPa Calm     86% 0.0 mm 0 W/m2
01:49 7 °C 5 °C 1015.4 hPa Calm     86% 0.0 mm 0 W/m2
01:54 7 °C 5 °C 1015.3 hPa Calm   5 km/h 88% 0.0 mm 0 W/m2
01:59 7 °C 6 °C 1015.3 hPa Calm   3 km/h 88% 0.0 mm 0 W/m2
02:04 7 °C 6 °C 1015.3 hPa NNW 2 km/h 6 km/h 88% 0.0 mm 0 W/m2
02:09 7 °C 6 °C 1015.3 hPa NNW 3 km/h 8 km/h 89% 0.0 mm 0 W/m2
02:14 8 °C 6 °C 1015.3 hPa NNW 4 km/h 8 km/h 88% 0.0 mm 0 W/m2
02:19 8 °C 6 °C 1015.3 hPa NW 4 km/h 8 km/h 89% 0.0 mm 0 W/m2
02:24 8 °C 6 °C 1015.3 hPa NW 3 km/h 6 km/h 88% 0.0 mm 0 W/m2
02:29 8 °C 6 °C 1015.3 hPa NW 4 km/h 6 km/h 88% 0.0 mm 0 W/m2
02:34 8 °C 6 °C 1015.3 hPa NW 3 km/h 8 km/h 88% 0.0 mm 0 W/m2
02:39 8 °C 6 °C 1015.3 hPa NW 3 km/h 6 km/h 88% 0.0 mm 0 W/m2
02:44 8 °C 6 °C 1015.4 hPa NW 1 km/h 5 km/h 88% 0.0 mm 0 W/m2
02:49 7 °C 6 °C 1015.3 hPa NW 2 km/h 5 km/h 88% 0.0 mm 0 W/m2
02:54 7 °C 6 °C 1015.3 hPa NW 4 km/h 6 km/h 88% 0.0 mm 0 W/m2
02:59 7 °C 6 °C 1015.3 hPa NW 2 km/h 6 km/h 89% 0.0 mm 0 W/m2
03:04 7 °C 6 °C 1015.3 hPa NW 2 km/h 6 km/h 89% 0.0 mm 0 W/m2
03:09 7 °C 6 °C 1015.3 hPa NW 2 km/h 5 km/h 89% 0.0 mm 0 W/m2
03:14 7 °C 6 °C 1015.4 hPa Calm   3 km/h 89% 0.0 mm 0 W/m2
03:19 7 °C 6 °C 1015.5 hPa Calm   2 km/h 89% 0.0 mm 0 W/m2
03:24 7 °C 6 °C 1015.5 hPa Calm   2 km/h 89% 0.0 mm 0 W/m2
03:29 7 °C 6 °C 1015.5 hPa Calm   3 km/h 89% 0.0 mm 0 W/m2
03:34 7 °C 6 °C 1015.5 hPa NW 1 km/h 3 km/h 89% 0.0 mm 0 W/m2
03:39 7 °C 6 °C 1015.5 hPa NW 1 km/h 8 km/h 90% 0.0 mm 0 W/m2
03:44 7 °C 6 °C 1015.6 hPa Calm   8 km/h 90% 0.0 mm 0 W/m2
03:49 7 °C 6 °C 1015.6 hPa Calm   3 km/h 90% 0.0 mm 0 W/m2
03:54 7 °C 6 °C 1015.6 hPa NW 1 km/h 3 km/h 90% 0.0 mm 0 W/m2
03:59 7 °C 6 °C 1015.7 hPa NW 1 km/h 6 km/h 90% 0.0 mm 0 W/m2
04:04 7 °C 6 °C 1015.8 hPa NW 1 km/h 3 km/h 90% 0.0 mm 0 W/m2
04:09 7 °C 6 °C 1015.8 hPa NW 1 km/h 5 km/h 90% 0.0 mm 0 W/m2
04:14 7 °C 6 °C 1015.8 hPa NW 1 km/h 5 km/h 90% 0.0 mm 0 W/m2
04:19 7 °C 6 °C 1015.8 hPa Calm   5 km/h 90% 0.0 mm 0 W/m2
04:24 7 °C 6 °C 1015.8 hPa Calm   2 km/h 90% 0.0 mm 0 W/m2
04:29 7 °C 6 °C 1015.8 hPa NW 1 km/h 3 km/h 90% 0.0 mm 0 W/m2
04:34 7 °C 6 °C 1015.8 hPa Calm   5 km/h 90% 0.0 mm 0 W/m2
04:39 7 °C 6 °C 1015.8 hPa NW 1 km/h 5 km/h 91% 0.0 mm 0 W/m2
04:44 7 °C 6 °C 1015.8 hPa NW 1 km/h 5 km/h 91% 0.0 mm 0 W/m2
04:49 7 °C 6 °C 1015.9 hPa Calm   5 km/h 91% 0.0 mm 0 W/m2
04:54 7 °C 6 °C 1015.9 hPa Calm   5 km/h 91% 0.0 mm 0 W/m2
04:59 7 °C 6 °C 1016.0 hPa NW 1 km/h 8 km/h 91% 0.0 mm 0 W/m2
05:04 7 °C 6 °C 1016.0 hPa NW 2 km/h 6 km/h 91% 0.0 mm 5 W/m2
05:09 7 °C 6 °C 1016.0 hPa NW 3 km/h 10 km/h 91% 0.0 mm 7 W/m2
05:14 7 °C 6 °C 1015.9 hPa NW 2 km/h 6 km/h 91% 0.0 mm 9 W/m2
05:19 7 °C 6 °C 1015.9 hPa NW 2 km/h 5 km/h 91% 0.0 mm 11 W/m2
05:24 7 °C 6 °C 1015.9 hPa NW 2 km/h 5 km/h 91% 0.0 mm 11 W/m2
05:29 7 °C 6 °C 1016.0 hPa NW 3 km/h 8 km/h 91% 0.0 mm 14 W/m2
05:34 8 °C 6 °C 1016.0 hPa NW 4 km/h 8 km/h 91% 0.0 mm 16 W/m2
05:39 8 °C 6 °C 1016.0 hPa NW 4 km/h 11 km/h 91% 0.0 mm 18 W/m2
05:44 8 °C 7 °C 1016.0 hPa NNW 3 km/h 11 km/h 91% 0.0 mm 19 W/m2
05:49 8 °C 7 °C 1016.0 hPa NNW 2 km/h 5 km/h 91% 0.0 mm 19 W/m2
05:54 8 °C 7 °C 1016.0 hPa NNW 4 km/h 8 km/h 91% 0.0 mm 21 W/m2
05:59 8 °C 7 °C 1015.9 hPa NNW 2 km/h 8 km/h 91% 0.0 mm 25 W/m2
06:04 8 °C 7 °C 1015.9 hPa NNW 3 km/h 8 km/h 90% 0.0 mm 25 W/m2
06:09 8 °C 7 °C 1016.0 hPa NW 3 km/h 10 km/h 90% 0.0 mm 28 W/m2
06:14 8 °C 7 °C 1016.0 hPa NW 4 km/h 10 km/h 90% 0.0 mm 25 W/m2
06:19 8 °C 7 °C 1016.0 hPa NW 5 km/h 11 km/h 90% 0.0 mm 26 W/m2
06:24 8 °C 7 °C 1016.0 hPa NW 5 km/h 11 km/h 90% 0.0 mm 28 W/m2
06:29 9 °C 7 °C 1016.0 hPa NW 4 km/h 10 km/h 90% 0.0 mm 42 W/m2
06:34 9 °C 7 °C 1016.0 hPa NW 4 km/h 11 km/h 90% 0.0 mm 39 W/m2
06:39 9 °C 7 °C 1016.0 hPa NNW 4 km/h 8 km/h 90% 0.0 mm 125 W/m2
06:44 9 °C 7 °C 1016.1 hPa NW 5 km/h 11 km/h 90% 0.0 mm 167 W/m2
06:49 9 °C 8 °C 1016.1 hPa NW 6 km/h 13 km/h 89% 0.0 mm 179 W/m2
06:54 9 °C 8 °C 1016.2 hPa NW 6 km/h 10 km/h 89% 0.0 mm 192 W/m2
06:59 9 °C 8 °C 1016.3 hPa NW 7 km/h 13 km/h 89% 0.0 mm 204 W/m2
07:04 9 °C 8 °C 1016.3 hPa NNW 7 km/h 13 km/h 88% 0.0 mm 214 W/m2
07:09 9 °C 8 °C 1016.3 hPa NW 7 km/h 13 km/h 88% 0.0 mm 230 W/m2
07:14 10 °C 8 °C 1016.4 hPa NW 7 km/h 14 km/h 87% 0.0 mm 243 W/m2
07:19 10 °C 8 °C 1016.4 hPa NW 7 km/h 16 km/h 86% 0.0 mm 257 W/m2
07:24 10 °C 8 °C 1016.5 hPa NW 7 km/h 14 km/h 85% 0.0 mm 274 W/m2
07:29 10 °C 8 °C 1016.5 hPa NW 7 km/h 14 km/h 84% 0.0 mm 288 W/m2
07:34 10 °C 8 °C 1016.6 hPa NW 8 km/h 14 km/h 84% 0.0 mm 306 W/m2
07:39 11 °C 8 °C 1016.6 hPa NW 7 km/h 18 km/h 83% 0.0 mm 318 W/m2
07:44 11 °C 8 °C 1016.5 hPa NW 9 km/h 14 km/h 83% 0.0 mm 341 W/m2
07:49 11 °C 8 °C 1016.6 hPa NW 9 km/h 16 km/h 82% 0.0 mm 341 W/m2
07:54 11 °C 8 °C 1016.7 hPa NW 7 km/h 14 km/h 82% 0.0 mm 332 W/m2
07:59 11 °C 8 °C 1016.6 hPa NW 8 km/h 14 km/h 81% 0.0 mm 383 W/m2
08:04 11 °C 8 °C 1016.6 hPa NW 7 km/h 13 km/h 81% 0.0 mm 390 W/m2
08:09 11 °C 8 °C 1016.7 hPa NW 7 km/h 13 km/h 81% 0.0 mm 410 W/m2
08:14 11 °C 8 °C 1016.7 hPa NW 10 km/h 18 km/h 80% 0.0 mm 417 W/m2
08:19 11 °C 8 °C 1016.8 hPa NW 8 km/h 18 km/h 79% 0.0 mm 427 W/m2
08:24 12 °C 8 °C 1016.8 hPa NW 9 km/h 19 km/h 79% 0.0 mm 432 W/m2
08:29 12 °C 8 °C 1016.8 hPa NW 7 km/h 14 km/h 79% 0.0 mm 455 W/m2
08:34 12 °C 8 °C 1016.8 hPa NW 9 km/h 18 km/h 78% 0.0 mm 471 W/m2
08:39 12 °C 8 °C 1016.8 hPa NW 9 km/h 18 km/h 77% 0.0 mm 489 W/m2
08:44 12 °C 8 °C 1016.9 hPa NW 6 km/h 16 km/h 77% 0.0 mm 499 W/m2
08:49 12 °C 8 °C 1016.9 hPa NW 7 km/h 18 km/h 77% 0.0 mm 519 W/m2
08:54 12 °C 8 °C 1016.9 hPa WNW 7 km/h 18 km/h 77% 0.0 mm 519 W/m2
08:59 12 °C 8 °C 1017.0 hPa NW 8 km/h 18 km/h 76% 0.0 mm 541 W/m2
09:04 13 °C 8 °C 1017.0 hPa NW 8 km/h 16 km/h 75% 0.0 mm 550 W/m2
09:09 13 °C 8 °C 1017.0 hPa NW 7 km/h 18 km/h 74% 0.0 mm 566 W/m2
09:14 13 °C 8 °C 1017.1 hPa NW 9 km/h 16 km/h 74% 0.0 mm 575 W/m2
09:19 13 °C 8 °C 1017.1 hPa NW 9 km/h 18 km/h 73% 0.0 mm 582 W/m2
09:24 13 °C 8 °C 1017.2 hPa NW 9 km/h 18 km/h 73% 0.0 mm 599 W/m2
09:29 13 °C 8 °C 1017.2 hPa NW 8 km/h 16 km/h 73% 0.0 mm 610 W/m2
09:34 13 °C 8 °C 1017.3 hPa NW 8 km/h 16 km/h 73% 0.0 mm 621 W/m2
09:39 13 °C 8 °C 1017.3 hPa NW 7 km/h 16 km/h 73% 0.0 mm 633 W/m2
09:44 13 °C 9 °C 1017.3 hPa NW 8 km/h 16 km/h 73% 0.0 mm 645 W/m2
09:49 13 °C 8 °C 1017.3 hPa NW 6 km/h 16 km/h 70% 0.0 mm 663 W/m2
09:54 13 °C 9 °C 1017.3 hPa NW 8 km/h 18 km/h 72% 0.0 mm 677 W/m2
09:59 14 °C 9 °C 1017.3 hPa WNW 9 km/h 18 km/h 71% 0.0 mm 684 W/m2
10:04 14 °C 9 °C 1017.2 hPa NW 9 km/h 18 km/h 70% 0.0 mm 687 W/m2
10:09 14 °C 8 °C 1017.2 hPa NW 7 km/h 18 km/h 69% 0.0 mm 756 W/m2
10:14 14 °C 9 °C 1017.3 hPa WNW 8 km/h 14 km/h 71% 0.0 mm 765 W/m2
10:19 14 °C 9 °C 1017.2 hPa WNW 9 km/h 14 km/h 71% 0.0 mm 824 W/m2
10:24 14 °C 8 °C 1017.3 hPa NW 7 km/h 14 km/h 67% 0.0 mm 824 W/m2
10:29 14 °C 8 °C 1017.2 hPa NW 8 km/h 18 km/h 69% 0.0 mm 837 W/m2
10:34 14 °C 8 °C 1017.2 hPa NW 8 km/h 18 km/h 68% 0.0 mm 812 W/m2
10:39 14 °C 8 °C 1017.2 hPa NNW 4 km/h 16 km/h 67% 0.0 mm 786 W/m2
10:44 14 °C 8 °C 1017.1 hPa NNW 5 km/h 13 km/h 67% 0.0 mm 960 W/m2
10:49 15 °C 9 °C 1017.2 hPa NNW 4 km/h 13 km/h 66% 0.0 mm 960 W/m2
10:54 15 °C 8 °C 1017.2 hPa NW 5 km/h 13 km/h 65% 0.0 mm 255 W/m2
10:59 15 °C 8 °C 1017.2 hPa NW 3 km/h 13 km/h 65% 0.0 mm 888 W/m2
11:04 15 °C 9 °C 1017.2 hPa NNW 4 km/h 14 km/h 65% 0.0 mm 918 W/m2
11:09 16 °C 8 °C 1017.2 hPa North 7 km/h 11 km/h 63% 0.0 mm 925 W/m2
11:14 16 °C 8 °C 1017.2 hPa NW 2 km/h 11 km/h 62% 0.0 mm 888 W/m2
11:19 16 °C 9 °C 1017.2 hPa NNW 4 km/h 11 km/h 64% 0.0 mm 877 W/m2
11:24 16 °C 9 °C 1017.2 hPa NW 7 km/h 16 km/h 64% 0.0 mm 911 W/m2
11:29 16 °C 9 °C 1017.2 hPa WNW 6 km/h 13 km/h 64% 0.0 mm 923 W/m2
11:34 16 °C 8 °C 1017.2 hPa NW 7 km/h 13 km/h 60% 0.0 mm 889 W/m2
11:39 16 °C 9 °C 1017.3 hPa NNW 7 km/h 13 km/h 64% 0.0 mm 909 W/m2
11:44 16 °C 9 °C 1017.3 hPa NW 9 km/h 18 km/h 62% 0.0 mm 907 W/m2
11:49 16 °C 9 °C 1017.2 hPa NW 6 km/h 13 km/h 62% 0.0 mm 900 W/m2
11:54 16 °C 9 °C 1017.2 hPa NW 6 km/h 14 km/h 65% 0.0 mm 904 W/m2
11:59 17 °C 9 °C 1017.1 hPa NW 6 km/h 14 km/h 63% 0.0 mm 921 W/m2
12:04 17 °C 9 °C 1017.2 hPa NW 10 km/h 21 km/h 60% 0.0 mm 923 W/m2
12:09 17 °C 9 °C 1017.2 hPa NW 5 km/h 14 km/h 61% 0.0 mm 974 W/m2
12:14 17 °C 9 °C 1017.3 hPa NW 9 km/h 19 km/h 60% 0.0 mm 1027 W/m2
12:19 16 °C 9 °C 1017.3 hPa WNW 6 km/h 19 km/h 61% 0.0 mm 958 W/m2
12:24 17 °C 9 °C 1017.3 hPa WNW 8 km/h 16 km/h 63% 0.0 mm 993 W/m2
12:29 17 °C 9 °C 1017.3 hPa NW 8 km/h 16 km/h 60% 0.0 mm 995 W/m2
12:34 17 °C 8 °C 1017.2 hPa NW 8 km/h 16 km/h 58% 0.0 mm 963 W/m2
12:39 17 °C 9 °C 1017.3 hPa West 6 km/h 13 km/h 63% 0.0 mm 984 W/m2
12:44 17 °C 9 °C 1017.3 hPa NW 7 km/h 13 km/h 59% 0.0 mm 984 W/m2
12:49 17 °C 9 °C 1017.3 hPa WNW 8 km/h 18 km/h 62% 0.0 mm 1035 W/m2
12:54 17 °C 9 °C 1017.2 hPa WNW 8 km/h 18 km/h 60% 0.0 mm 1035 W/m2
12:59 17 °C 9 °C 1017.3 hPa NW 8 km/h 16 km/h 58% 0.0 mm 972 W/m2
13:04 17 °C 9 °C 1017.4 hPa WNW 8 km/h 14 km/h 58% 0.0 mm 1028 W/m2
13:09 17 °C 9 °C 1017.3 hPa WNW 8 km/h 14 km/h 60% 0.0 mm 1065 W/m2
13:14 17 °C 8 °C 1017.3 hPa NW 6 km/h 13 km/h 57% 0.0 mm 986 W/m2
13:19 17 °C 9 °C 1017.3 hPa WNW 9 km/h 18 km/h 60% 0.0 mm 1021 W/m2
13:24 17 °C 8 °C 1017.4 hPa NW 7 km/h 18 km/h 56% 0.0 mm 1021 W/m2
13:29 17 °C 8 °C 1017.4 hPa NW 7 km/h 14 km/h 57% 0.0 mm 193 W/m2
13:34 16 °C 9 °C 1017.4 hPa NW 10 km/h 19 km/h 60% 0.0 mm 993 W/m2
13:39 17 °C 9 °C 1017.3 hPa NW 11 km/h 19 km/h 59% 0.0 mm 993 W/m2
13:44 17 °C 8 °C 1017.3 hPa NW 9 km/h 16 km/h 58% 0.0 mm 942 W/m2
13:49 17 °C 9 °C 1017.3 hPa NW 5 km/h 16 km/h 59% 0.0 mm 986 W/m2
13:54 17 °C 9 °C 1017.3 hPa NW 9 km/h 18 km/h 56% 0.0 mm 986 W/m2
13:59 17 °C 8 °C 1017.4 hPa NW 9 km/h 19 km/h 56% 0.0 mm 308 W/m2
14:04 17 °C 8 °C 1017.4 hPa NNW 6 km/h 16 km/h 57% 0.0 mm 935 W/m2
14:09 17 °C 9 °C 1017.4 hPa WNW 8 km/h 14 km/h 60% 0.0 mm 933 W/m2
14:14 17 °C 9 °C 1017.5 hPa NW 9 km/h 18 km/h 59% 0.0 mm 940 W/m2
14:19 17 °C 9 °C 1017.5 hPa WNW 9 km/h 18 km/h 57% 0.0 mm 949 W/m2
14:24 17 °C 8 °C 1017.5 hPa NW 8 km/h 14 km/h 55% 0.0 mm 967 W/m2
14:29 17 °C 9 °C 1017.5 hPa WNW 10 km/h 19 km/h 58% 0.0 mm 967 W/m2
14:34 17 °C 8 °C 1017.5 hPa NW 7 km/h 16 km/h 55% 0.0 mm 919 W/m2
14:39 17 °C 9 °C 1017.6 hPa NW 7 km/h 16 km/h 58% 0.0 mm 904 W/m2
14:44 17 °C 8 °C 1017.6 hPa NW 10 km/h 16 km/h 56% 0.0 mm 918 W/m2
14:49 17 °C 8 °C 1017.7 hPa NW 7 km/h 16 km/h 55% 0.0 mm 918 W/m2
14:54 17 °C 8 °C 1017.7 hPa NW 7 km/h 19 km/h 57% 0.0 mm 870 W/m2
14:59 17 °C 9 °C 1017.7 hPa NW 9 km/h 19 km/h 57% 0.0 mm 863 W/m2
15:04 17 °C 8 °C 1017.8 hPa NW 12 km/h 18 km/h 54% 0.0 mm 863 W/m2
15:09 17 °C 8 °C 1017.9 hPa NW 10 km/h 16 km/h 55% 0.0 mm 803 W/m2
15:14 17 °C 8 °C 1017.9 hPa WNW 10 km/h 18 km/h 56% 0.0 mm 796 W/m2
15:19 17 °C 8 °C 1017.9 hPa NW 10 km/h 19 km/h 56% 0.0 mm 849 W/m2
15:24 17 °C 8 °C 1017.9 hPa WNW 9 km/h 16 km/h 55% 0.0 mm 851 W/m2
15:29 17 °C 9 °C 1017.9 hPa WNW 10 km/h 21 km/h 57% 0.0 mm 851 W/m2
15:34 18 °C 9 °C 1017.9 hPa WNW 8 km/h 21 km/h 56% 0.0 mm 759 W/m2
15:39 18 °C 9 °C 1017.8 hPa WNW 9 km/h 16 km/h 55% 0.0 mm 795 W/m2
15:44 18 °C 8 °C 1018.0 hPa WNW 12 km/h 21 km/h 54% 0.0 mm 803 W/m2
15:49 17 °C 8 °C 1017.9 hPa WNW 11 km/h 21 km/h 55% 0.0 mm 798 W/m2
15:54 18 °C 8 °C 1017.8 hPa NW 10 km/h 18 km/h 55% 0.0 mm 703 W/m2
15:59 17 °C 8 °C 1017.9 hPa NW 8 km/h 18 km/h 53% 0.0 mm 703 W/m2
16:04 17 °C 8 °C 1017.8 hPa NW 7 km/h 16 km/h 53% 0.0 mm 694 W/m2
16:09 17 °C 8 °C 1017.8 hPa WNW 9 km/h 18 km/h 55% 0.0 mm 663 W/m2
16:14 17 °C 8 °C 1017.8 hPa WNW 9 km/h 19 km/h 54% 0.0 mm 649 W/m2
16:19 17 °C 8 °C 1017.8 hPa WNW 9 km/h 16 km/h 54% 0.0 mm 657 W/m2
16:24 17 °C 8 °C 1017.8 hPa WNW 9 km/h 19 km/h 55% 0.0 mm 636 W/m2
16:29 17 °C 8 °C 1017.8 hPa NW 7 km/h 19 km/h 54% 0.0 mm 621 W/m2
16:34 17 °C 8 °C 1017.8 hPa NW 8 km/h 18 km/h 54% 0.0 mm 633 W/m2
16:39 17 °C 8 °C 1017.8 hPa NW 8 km/h 18 km/h 53% 0.0 mm 599 W/m2
16:44 17 °C 8 °C 1017.8 hPa WNW 10 km/h 21 km/h 55% 0.0 mm 599 W/m2
16:49 17 °C 8 °C 1017.9 hPa NW 9 km/h 21 km/h 54% 0.0 mm 571 W/m2
16:54 17 °C 8 °C 1017.9 hPa WNW 9 km/h 18 km/h 54% 0.0 mm 561 W/m2
16:59 17 °C 8 °C 1018.0 hPa WNW 10 km/h 16 km/h 54% 0.0 mm 552 W/m2
17:04 17 °C 8 °C 1018.0 hPa WNW 7 km/h 16 km/h 53% 0.0 mm 540 W/m2
17:09 17 °C 7 °C 1017.9 hPa NW 10 km/h 16 km/h 52% 0.0 mm 531 W/m2
17:14 17 °C 7 °C 1017.9 hPa NW 9 km/h 16 km/h 52% 0.0 mm 515 W/m2
17:19 17 °C 7 °C 1018.0 hPa NW 9 km/h 16 km/h 52% 0.0 mm 501 W/m2
17:24 17 °C 7 °C 1018.0 hPa WNW 9 km/h 19 km/h 52% 0.0 mm 490 W/m2
17:29 17 °C 7 °C 1017.9 hPa NW 10 km/h 21 km/h 52% 0.0 mm 473 W/m2
17:34 17 °C 7 °C 1017.9 hPa NW 6 km/h 21 km/h 52% 0.0 mm 461 W/m2
17:39 17 °C 7 °C 1018.0 hPa NW 6 km/h 21 km/h 53% 0.0 mm 441 W/m2
17:44 17 °C 7 °C 1017.9 hPa NW 9 km/h 19 km/h 53% 0.0 mm 439 W/m2
17:49 17 °C 7 °C 1018.0 hPa NW 6 km/h 19 km/h 52% 0.0 mm 425 W/m2
17:54 17 °C 7 °C 1018.0 hPa WNW 10 km/h 24 km/h 51% 0.0 mm 408 W/m2
17:59 17 °C 7 °C 1018.0 hPa NW 8 km/h 18 km/h 50% 0.0 mm 394 W/m2
18:04 17 °C 6 °C 1018.0 hPa NW 7 km/h 14 km/h 50% 0.0 mm 385 W/m2
18:09 17 °C 7 °C 1018.0 hPa WNW 6 km/h 13 km/h 51% 0.0 mm 373 W/m2
18:14 17 °C 7 °C 1018.0 hPa WNW 9 km/h 19 km/h 50% 0.0 mm 360 W/m2
18:19 17 °C 6 °C 1018.0 hPa WNW 9 km/h 19 km/h 50% 0.0 mm 348 W/m2
18:24 16 °C 6 °C 1018.0 hPa WNW 9 km/h 21 km/h 49% 0.0 mm 332 W/m2
18:29 16 °C 6 °C 1018.0 hPa WNW 8 km/h 16 km/h 51% 0.0 mm 318 W/m2
18:34 16 °C 6 °C 1018.0 hPa NW 6 km/h 14 km/h 50% 0.0 mm 304 W/m2
18:39 16 °C 6 °C 1018.0 hPa NW 7 km/h 14 km/h 50% 0.0 mm 292 W/m2
18:44 16 °C 6 °C 1018.1 hPa WNW 8 km/h 14 km/h 50% 0.0 mm 276 W/m2
18:49 16 °C 6 °C 1018.1 hPa WNW 9 km/h 16 km/h 49% 0.0 mm 265 W/m2
18:54 16 °C 6 °C 1018.1 hPa NW 8 km/h 14 km/h 50% 0.0 mm 253 W/m2
18:59 16 °C 6 °C 1018.1 hPa NW 7 km/h 13 km/h 51% 0.0 mm 239 W/m2
19:04 16 °C 6 °C 1018.1 hPa NNW 6 km/h 11 km/h 50% 0.0 mm 221 W/m2
19:09 16 °C 6 °C 1018.0 hPa NW 5 km/h 11 km/h 50% 0.0 mm 209 W/m2
19:14 16 °C 6 °C 1018.0 hPa NW 6 km/h 13 km/h 51% 0.0 mm 195 W/m2
19:19 16 °C 5 °C 1018.0 hPa NW 5 km/h 13 km/h 49% 0.0 mm 181 W/m2
19:24 16 °C 4 °C 1018.0 hPa NW 7 km/h 13 km/h 48% 0.0 mm 169 W/m2
19:29 16 °C 4 °C 1018.0 hPa NW 6 km/h 11 km/h 47% 0.0 mm 155 W/m2
19:34 15 °C 4 °C 1018.0 hPa NW 6 km/h 11 km/h 46% 0.0 mm 139 W/m2
19:39 15 °C 4 °C 1018.0 hPa NW 6 km/h 13 km/h 46% 0.0 mm 123 W/m2
19:44 15 °C 3 °C 1018.0 hPa NW 6 km/h 13 km/h 46% 0.0 mm 109 W/m2
19:49 14 °C 3 °C 1018.1 hPa NW 7 km/h 13 km/h 47% 0.0 mm 95 W/m2
19:54 14 °C 3 °C 1018.1 hPa NW 8 km/h 16 km/h 46% 0.0 mm 83 W/m2
19:59 14 °C 3 °C 1018.1 hPa NW 7 km/h 16 km/h 47% 0.0 mm 74 W/m2
20:04 14 °C 3 °C 1018.1 hPa NW 7 km/h 13 km/h 49% 0.0 mm 58 W/m2
20:09 14 °C 4 °C 1018.1 hPa NW 7 km/h 13 km/h 51% 0.0 mm 49 W/m2
20:14 13 °C 3 °C 1018.1 hPa NW 7 km/h 13 km/h 51% 0.0 mm 40 W/m2
20:19 13 °C 3 °C 1018.2 hPa NW 6 km/h 13 km/h 50% 0.0 mm 33 W/m2
20:24 13 °C 3 °C 1018.2 hPa NW 6 km/h 13 km/h 50% 0.0 mm 26 W/m2
20:29 13 °C 3 °C 1018.2 hPa WNW 5 km/h 13 km/h 51% 0.0 mm 23 W/m2
20:34 13 °C 3 °C 1018.3 hPa NW 7 km/h 14 km/h 52% 0.0 mm 18 W/m2
20:39 13 °C 4 °C 1018.4 hPa NW 7 km/h 14 km/h 54% 0.0 mm 14 W/m2
20:44 12 °C 3 °C 1018.4 hPa NW 6 km/h 14 km/h 54% 0.0 mm 12 W/m2
20:49 12 °C 4 °C 1018.4 hPa NW 3 km/h 10 km/h 55% 0.0 mm 11 W/m2
20:54 12 °C 4 °C 1018.5 hPa NW 4 km/h 10 km/h 57% 0.0 mm 9 W/m2
20:59 12 °C 4 °C 1018.6 hPa NW 2 km/h 8 km/h 58% 0.0 mm 7 W/m2
21:04 12 °C 4 °C 1018.6 hPa NW 3 km/h 8 km/h 59% 0.0 mm 5 W/m2
21:09 12 °C 4 °C 1018.6 hPa NW 2 km/h 8 km/h 60% 0.0 mm 5 W/m2
21:14 11 °C 4 °C 1018.6 hPa NW 2 km/h 8 km/h 61% 0.0 mm 0 W/m2
21:19 11 °C 4 °C 1018.6 hPa Calm   6 km/h 62% 0.0 mm 0 W/m2
21:24 11 °C 4 °C 1018.6 hPa Calm   6 km/h 63% 0.0 mm 0 W/m2
21:29 11 °C 4 °C 1018.6 hPa Calm   2 km/h 63% 0.0 mm 0 W/m2
21:34 11 °C 4 °C 1018.7 hPa NW 1 km/h 5 km/h 64% 0.0 mm 0 W/m2
21:39 11 °C 4 °C 1018.7 hPa NW 1 km/h 5 km/h 65% 0.0 mm 0 W/m2
21:44 10 °C 4 °C 1018.6 hPa NW 1 km/h 3 km/h 66% 0.0 mm 0 W/m2
21:49 10 °C 4 °C 1018.7 hPa Calm   2 km/h 66% 0.0 mm 0 W/m2
21:54 10 °C 4 °C 1018.7 hPa Calm   2 km/h 67% 0.0 mm 0 W/m2
21:59 10 °C 4 °C 1018.7 hPa Calm     67% 0.0 mm 0 W/m2
22:04 9 °C 4 °C 1018.7 hPa Calm   2 km/h 68% 0.0 mm 0 W/m2
22:09 9 °C 4 °C 1018.7 hPa Calm   2 km/h 69% 0.0 mm 0 W/m2
22:14 9 °C 4 °C 1018.7 hPa Calm     69% 0.0 mm 0 W/m2
22:19 9 °C 4 °C 1018.7 hPa Calm     70% 0.0 mm 0 W/m2
22:24 9 °C 4 °C 1018.7 hPa Calm     70% 0.0 mm 0 W/m2
22:29 9 °C 4 °C 1018.7 hPa Calm     70% 0.0 mm 0 W/m2
22:34 9 °C 4 °C 1018.7 hPa Calm     71% 0.0 mm 0 W/m2
22:39 9 °C 4 °C 1018.7 hPa NW 1 km/h 5 km/h 72% 0.0 mm 0 W/m2
22:44 9 °C 4 °C 1018.8 hPa Calm   2 km/h 72% 0.0 mm 0 W/m2
22:49 9 °C 4 °C 1018.8 hPa Calm   5 km/h 72% 0.0 mm 0 W/m2
22:54 9 °C 4 °C 1018.9 hPa Calm     72% 0.0 mm 0 W/m2
22:59 9 °C 4 °C 1018.8 hPa Calm     72% 0.0 mm 0 W/m2
23:04 9 °C 4 °C 1018.9 hPa Calm     72% 0.0 mm 0 W/m2
23:09 8 °C 4 °C 1018.9 hPa NW 1 km/h 8 km/h 72% 0.0 mm 0 W/m2
23:14 8 °C 4 °C 1019.0 hPa Calm   8 km/h 73% 0.0 mm 0 W/m2
23:19 8 °C 4 °C 1018.9 hPa Calm     73% 0.0 mm 0 W/m2
23:24 8 °C 4 °C 1018.9 hPa Calm     73% 0.0 mm 0 W/m2
23:29 8 °C 4 °C 1019.0 hPa Calm     73% 0.0 mm 0 W/m2
23:34 8 °C 4 °C 1019.0 hPa Calm     74% 0.0 mm 0 W/m2
23:39 8 °C 4 °C 1019.0 hPa Calm     75% 0.0 mm 0 W/m2
23:44 8 °C 4 °C 1019.1 hPa Calm     75% 0.0 mm 0 W/m2
23:49 8 °C 4 °C 1019.1 hPa Calm     76% 0.0 mm 0 W/m2
23:54 8 °C 4 °C 1019.1 hPa Calm     76% 0.0 mm 0 W/m2
23:59 8 °C 4 °C 1019.1 hPa Calm   5 km/h 77% 0.0 mm 0 W/m2
Compliments of Weather Underground - 4.25 mb